Location: Peterborough
(44.3091°N, 78.3197°W)
Time: 04:40:47
(UTC-04:00)

Tiros 1 - Pass Details

Date: 06 April 2023
Orbit: 627 x 661 km, 48.4° (Epoch: 09 June)

Event Time Altitude Azimuth Distance (km) Brightness Sun altitude
Rises 06:01:59 0° 289° (WNW) 2,985 - -8.4°
Exits shadow 06:03:03 - 290° (WNW) 2,570 9.8 -8.3°
Reaches altitude 10° 06:04:21 10° 292° (WNW) 2,075 9.3 -8.0°
Maximum altitude 06:09:07 64° 15° (NNE) 730 7.6 -7.2°
Drops below altitude 10° 06:13:53 10° 97° (E) 2,074 11.1 -6.4°
Sets 06:16:15 0° 101° (E) 2,984 11.9 -6.0°
